Weather History for Walla Walla, WA

Change the Weather History Date:

Thursday, August 15, 2013

  Actual Average Record
Temperature  
Mean Temperature 80 °F -  
Max Temperature 97 °F 87 °F 105 °F (1967)
Min Temperature 66 °F 62 °F 51 °F (1960)
Cooling Degree Days 16    
Growing Degree Days 30 (Base 50)    
Moisture  
Dew Point 46 °F    
Average Humidity 30    
Maximum Humidity 47    
Minimum Humidity 17    
Precipitation  
Precipitation 0.00 in - - ()
Sea Level Pressure  
Sea Level Pressure 29.88 in    
Wind  
Wind Speed 7 mph (SSW)    
Max Wind Speed 15 mph    
Max Gust Speed -    
Visibility 10 miles    
Events      
Averages and records for this station are not official NWS values.
T = Trace of Precipitation, MM = Missing Value Source: NWS Daily Summary

Daily Weather History Graph

Daily Weather History Graph

Search for Another Location

Airport:

Trip Planner

Search our weather history database for the weather conditions in past years. The results will help you decide how hot, cold, wet, or windy it might be!

Date:

Astronomy

Aug. 15, 2013 Rise Set
Actual Time 5:52 AM PDT 8:01 PM PDT
Civil Twilight 5:20 AM PDT 8:33 PM PDT
Nautical Twilight 4:39 AM PDT 9:14 PM PDT
Astronomical Twilight 3:54 AM PDT 9:58 PM PDT
Moon 3:29 PM PDT (8/15) 12:01 AM PDT (8/15)
Length of Visible Light 15h 13m
Length of Day
14h 08m
Waxing Gibbous, 65% of the Moon is Illuminated
Aug 15
Waxing Gibbous
Aug 20
Full
Aug 28
Last Quarter
Sep 5
New
Sep 12
First Quarter

Hourly Weather History & Observations

Time (PDT) Temp. Dew Point Humidity Pressure Visibility Wind Dir Wind Speed Gust Speed Precip Events Conditions
12:53 AM 75.9 °F 46.0 °F 35% 29.89 in 10.0 mi South 13.8 mph - N/A   Clear
1:53 AM 73.0 °F 46.0 °F 38% 29.90 in 10.0 mi South 5.8 mph - N/A   Clear
2:53 AM 72.0 °F 45.0 °F 38% 29.90 in 10.0 mi South 5.8 mph - N/A   Clear
3:53 AM 71.1 °F 46.0 °F 41% 29.91 in 10.0 mi SE 5.8 mph - N/A   Clear
4:53 AM 70.0 °F 46.0 °F 42% 29.91 in 10.0 mi SSE 4.6 mph - N/A   Clear
5:53 AM 66.9 °F 46.0 °F 47% 29.91 in 10.0 mi SE 3.5 mph - N/A   Clear
6:53 AM 71.1 °F 46.0 °F 41% 29.92 in 10.0 mi SSE 3.5 mph - N/A   Clear
7:53 AM 75.0 °F 46.0 °F 36% 29.93 in 10.0 mi SSW 5.8 mph - N/A   Clear
8:53 AM 78.1 °F 46.0 °F 32% 29.93 in 9.0 mi SW 9.2 mph - N/A   Clear
9:53 AM 81.0 °F 46.0 °F 29% 29.92 in 9.0 mi SSW 5.8 mph - N/A   Clear
10:53 AM 82.9 °F 45.0 °F 26% 29.91 in 10.0 mi Variable 3.5 mph - N/A   Clear
11:53 AM 86.0 °F 44.1 °F 23% 29.89 in 10.0 mi Variable 3.5 mph - N/A   Clear
12:53 PM 89.1 °F 43.0 °F 20% 29.87 in 10.0 mi West 5.8 mph - N/A   Clear
1:53 PM 91.9 °F 44.1 °F 19% 29.85 in 10.0 mi Variable 5.8 mph - N/A   Clear
2:53 PM 91.9 °F 44.1 °F 19% 29.84 in 10.0 mi SW 3.5 mph - N/A   Clear
3:53 PM 95.0 °F 43.0 °F 17% 29.82 in 10.0 mi WNW 8.1 mph - N/A   Clear
4:53 PM 95.0 °F 44.1 °F 17% 29.80 in 10.0 mi West 5.8 mph - N/A   Clear
5:53 PM 95.0 °F 46.9 °F 19% 29.80 in 10.0 mi Variable 4.6 mph - N/A   Clear
6:53 PM 93.0 °F 46.0 °F 20% 29.80 in 10.0 mi WNW 15.0 mph - N/A   Clear
7:53 PM 84.9 °F 46.0 °F 26% 29.82 in 10.0 mi WNW 3.5 mph - N/A   Clear
8:53 PM 84.9 °F 48.0 °F 28% 29.86 in 10.0 mi SE 3.5 mph - N/A   Clear
10:53 PM 77.0 °F 48.9 °F 37% 29.89 in 10.0 mi South 9.2 mph - N/A   Clear
11:53 PM 75.9 °F 51.1 °F 42% 29.91 in 10.0 mi South 13.8 mph - N/A   Clear